Year,Month,Day,Hour,Minute,Value (Times are PST for temperature in C)
2009,04,27,00,00,7.00
2009,04,27,00,01,7.00
2009,04,27,00,02,7.00
2009,04,27,00,03,7.00
2009,04,27,00,04,7.00
2009,04,27,00,05,7.00
2009,04,27,00,06,7.00
2009,04,27,00,07,7.00
2009,04,27,00,08,6.90
2009,04,27,00,09,6.90
2009,04,27,00,10,6.90
2009,04,27,00,11,6.90
2009,04,27,00,12,6.90
2009,04,27,00,13,6.90
2009,04,27,00,14,6.90
2009,04,27,00,15,6.90
2009,04,27,00,16,6.90
2009,04,27,00,17,6.90
2009,04,27,00,18,6.90
2009,04,27,00,19,6.90
2009,04,27,00,20,6.90
2009,04,27,00,21,6.90
2009,04,27,00,22,6.90
2009,04,27,00,23,6.90
2009,04,27,00,24,6.90
2009,04,27,00,25,6.90
2009,04,27,00,26,6.90
2009,04,27,00,27,6.90
2009,04,27,00,28,6.80
2009,04,27,00,29,6.80
2009,04,27,00,30,6.80
2009,04,27,00,31,6.80
2009,04,27,00,32,6.80
2009,04,27,00,33,6.80
2009,04,27,00,34,6.80
2009,04,27,00,35,6.80
2009,04,27,00,36,6.80
2009,04,27,00,37,6.80
2009,04,27,00,38,6.80
2009,04,27,00,39,6.70
2009,04,27,00,40,6.70
2009,04,27,00,41,6.70
2009,04,27,00,42,6.70
2009,04,27,00,43,6.70
2009,04,27,00,44,6.70
2009,04,27,00,45,6.70
2009,04,27,00,46,6.70
2009,04,27,00,47,6.70
2009,04,27,00,48,6.70
2009,04,27,00,49,6.70
2009,04,27,00,50,6.70
2009,04,27,00,51,6.70
2009,04,27,00,52,6.70
2009,04,27,00,53,6.70
2009,04,27,00,54,6.70
2009,04,27,00,55,6.70
2009,04,27,00,56,6.70
2009,04,27,00,57,6.70
2009,04,27,00,58,6.70
2009,04,27,00,59,6.70
2009,04,27,01,00,6.60
2009,04,27,01,01,6.60
2009,04,27,01,02,6.60
2009,04,27,01,03,6.60
2009,04,27,01,04,6.60
2009,04,27,01,05,6.60
2009,04,27,01,06,6.50
2009,04,27,01,07,6.50
2009,04,27,01,08,6.50
2009,04,27,01,09,6.50
2009,04,27,01,10,6.50
2009,04,27,01,11,6.50
2009,04,27,01,12,6.50
2009,04,27,01,13,6.50
2009,04,27,01,14,6.50
2009,04,27,01,15,6.50
2009,04,27,01,16,6.50
2009,04,27,01,17,6.50
2009,04,27,01,18,6.40
2009,04,27,01,19,6.40
2009,04,27,01,20,6.40
2009,04,27,01,21,6.40
2009,04,27,01,22,6.40
2009,04,27,01,23,6.40
2009,04,27,01,24,6.40
2009,04,27,01,25,6.40
2009,04,27,01,26,6.40
2009,04,27,01,27,6.40
2009,04,27,01,28,6.40
2009,04,27,01,29,6.40
2009,04,27,01,30,6.40
2009,04,27,01,31,6.40
2009,04,27,01,32,6.40
2009,04,27,01,33,6.30
2009,04,27,01,34,6.30
2009,04,27,01,35,6.30
2009,04,27,01,36,6.30
2009,04,27,01,37,6.30
2009,04,27,01,38,6.30
2009,04,27,01,39,6.30
2009,04,27,01,40,6.20
2009,04,27,01,41,6.20
2009,04,27,01,42,6.20
2009,04,27,01,43,6.20
2009,04,27,01,44,6.20
2009,04,27,01,45,6.20
2009,04,27,01,46,6.20
2009,04,27,01,47,6.20
2009,04,27,01,48,6.20
2009,04,27,01,49,6.20
2009,04,27,01,50,6.20
2009,04,27,01,51,6.20
2009,04,27,01,52,6.20
2009,04,27,01,53,6.20
2009,04,27,01,54,6.20
2009,04,27,01,55,6.20
2009,04,27,01,56,6.20
2009,04,27,01,57,6.20
2009,04,27,01,58,6.20
2009,04,27,01,59,6.20
2009,04,27,02,00,6.30
2009,04,27,02,01,6.30
2009,04,27,02,02,6.30
2009,04,27,02,03,6.30
2009,04,27,02,04,6.30
2009,04,27,02,05,6.30
2009,04,27,02,06,6.30
2009,04,27,02,07,6.30
2009,04,27,02,08,6.30
2009,04,27,02,09,6.30
2009,04,27,02,10,6.30
2009,04,27,02,11,6.30
2009,04,27,02,12,6.20
2009,04,27,02,13,6.20
2009,04,27,02,14,6.20
2009,04,27,02,15,6.20
2009,04,27,02,16,6.20
2009,04,27,02,17,6.20
2009,04,27,02,18,6.20
2009,04,27,02,19,6.20
2009,04,27,02,20,6.20
2009,04,27,02,21,6.20
2009,04,27,02,22,6.20
2009,04,27,02,23,6.20
2009,04,27,02,24,6.20
2009,04,27,02,25,6.20
2009,04,27,02,26,6.20
2009,04,27,02,27,6.20
2009,04,27,02,28,6.20
2009,04,27,02,29,6.20
2009,04,27,02,30,6.20
2009,04,27,02,31,6.20
2009,04,27,02,32,6.20
2009,04,27,02,33,6.20
2009,04,27,02,34,6.20
2009,04,27,02,35,6.20
2009,04,27,02,36,6.20
2009,04,27,02,37,6.20
2009,04,27,02,38,6.20
2009,04,27,02,39,6.20
2009,04,27,02,40,6.20
2009,04,27,02,41,6.20
2009,04,27,02,42,6.20
2009,04,27,02,43,6.20
2009,04,27,02,44,6.20
2009,04,27,02,45,6.20
2009,04,27,02,46,6.20
2009,04,27,02,47,6.20
2009,04,27,02,48,6.20
2009,04,27,02,49,6.20
2009,04,27,02,50,6.20
2009,04,27,02,51,6.20
2009,04,27,02,52,6.20
2009,04,27,02,53,6.20
2009,04,27,02,54,6.20
2009,04,27,02,55,6.20
2009,04,27,02,56,6.10
2009,04,27,02,57,6.10
2009,04,27,02,58,6.10
2009,04,27,02,59,6.10
2009,04,27,03,00,6.10
2009,04,27,03,01,6.10
2009,04,27,03,02,6.10
2009,04,27,03,03,6.00
2009,04,27,03,04,6.00
2009,04,27,03,05,6.00
2009,04,27,03,06,6.00
2009,04,27,03,07,6.00
2009,04,27,03,08,6.00
2009,04,27,03,09,5.90
2009,04,27,03,10,5.90
2009,04,27,03,11,5.90
2009,04,27,03,12,5.90
2009,04,27,03,13,5.90
2009,04,27,03,14,5.90
2009,04,27,03,15,5.90
2009,04,27,03,16,5.90
2009,04,27,03,17,5.90
2009,04,27,03,18,5.90
2009,04,27,03,19,5.90
2009,04,27,03,20,5.90
2009,04,27,03,21,5.90
2009,04,27,03,22,5.90
2009,04,27,03,23,6.00
2009,04,27,03,24,6.00
2009,04,27,03,25,6.00
2009,04,27,03,26,6.00
2009,04,27,03,27,6.10
2009,04,27,03,28,6.10
2009,04,27,03,29,6.10
2009,04,27,03,30,6.20
2009,04,27,03,31,6.20
2009,04,27,04,02,7.60
2009,04,27,04,03,7.70
2009,04,27,04,04,7.70
2009,04,27,04,05,7.70
2009,04,27,04,06,7.80
2009,04,27,04,07,7.80
2009,04,27,04,08,7.80
2009,04,27,04,09,7.80
2009,04,27,04,10,7.80
2009,04,27,04,11,7.80
2009,04,27,04,12,7.70
2009,04,27,04,13,7.70
2009,04,27,04,14,7.70
2009,04,27,04,15,7.70
2009,04,27,04,16,7.70
2009,04,27,04,17,7.70
2009,04,27,04,18,7.70
2009,04,27,04,19,7.70
2009,04,27,04,20,7.70
2009,04,27,04,21,7.70
2009,04,27,04,22,7.70
2009,04,27,04,23,7.70
2009,04,27,04,24,7.70
2009,04,27,04,25,7.70
2009,04,27,04,26,7.70
2009,04,27,04,27,7.70
2009,04,27,04,28,7.70
2009,04,27,04,29,7.70
2009,04,27,04,30,7.70
2009,04,27,04,31,7.70
2009,04,27,04,32,7.70
2009,04,27,04,33,7.60
2009,04,27,04,34,7.60
2009,04,27,04,35,7.60
2009,04,27,04,36,7.60
2009,04,27,04,37,7.60
2009,04,27,04,38,7.60
2009,04,27,04,39,7.60
2009,04,27,04,40,7.60
2009,04,27,04,41,7.60
2009,04,27,04,42,7.60
2009,04,27,04,43,7.60
2009,04,27,04,44,7.60
2009,04,27,04,45,7.60
2009,04,27,04,46,7.60
2009,04,27,04,47,7.60
2009,04,27,04,48,7.60
2009,04,27,04,49,7.70
2009,04,27,04,50,7.70
2009,04,27,04,51,7.70
2009,04,27,04,52,7.70
2009,04,27,04,53,7.70
2009,04,27,04,54,7.70
2009,04,27,04,55,7.70
2009,04,27,04,56,7.70
2009,04,27,04,57,7.70
2009,04,27,04,58,7.70
2009,04,27,04,59,7.70
2009,04,27,05,00,7.60
2009,04,27,05,01,7.70
2009,04,27,05,02,7.60
2009,04,27,05,03,7.60
2009,04,27,05,04,7.60
2009,04,27,05,05,7.60
2009,04,27,05,06,7.60
2009,04,27,05,07,7.60
2009,04,27,05,08,7.60
2009,04,27,05,09,7.60
2009,04,27,05,10,7.60
2009,04,27,05,11,7.60
2009,04,27,05,12,7.60
2009,04,27,05,13,7.60
2009,04,27,05,14,7.60
2009,04,27,05,15,7.60
2009,04,27,05,16,7.60
2009,04,27,05,17,7.60
2009,04,27,05,18,7.60
2009,04,27,05,19,7.50
2009,04,27,05,20,7.50
2009,04,27,05,21,7.50
2009,04,27,05,22,7.60
2009,04,27,05,23,7.60
2009,04,27,05,24,7.60
2009,04,27,05,25,7.60
2009,04,27,05,26,7.70
2009,04,27,05,27,7.70
2009,04,27,05,28,7.70
2009,04,27,05,29,7.70
2009,04,27,05,30,7.70
2009,04,27,05,31,7.70
2009,04,27,05,32,7.80
2009,04,27,05,33,7.70
2009,04,27,05,34,7.70
2009,04,27,05,35,7.70
2009,04,27,05,36,7.70
2009,04,27,05,37,7.70
2009,04,27,05,38,7.80
2009,04,27,05,39,7.80
2009,04,27,05,40,7.80
2009,04,27,05,41,7.80
2009,04,27,05,42,7.80
2009,04,27,05,43,7.80
2009,04,27,05,44,7.80
2009,04,27,05,45,7.80
2009,04,27,05,46,7.80
2009,04,27,05,47,7.80
2009,04,27,05,48,7.80
2009,04,27,05,49,7.80
2009,04,27,05,50,7.80
2009,04,27,05,51,7.80
2009,04,27,05,52,7.80
2009,04,27,05,53,7.80
2009,04,27,05,54,7.80
2009,04,27,05,55,7.90
2009,04,27,05,56,7.90
2009,04,27,05,57,7.90
2009,04,27,05,58,7.90
2009,04,27,05,59,7.90
2009,04,27,06,00,7.90
2009,04,27,06,01,7.90
2009,04,27,06,02,7.90
2009,04,27,06,03,7.90
2009,04,27,06,04,7.90
2009,04,27,06,05,7.90
2009,04,27,06,06,7.90
2009,04,27,06,07,7.90
2009,04,27,06,08,8.00
2009,04,27,06,09,8.00
2009,04,27,06,10,8.00
2009,04,27,06,11,8.00
2009,04,27,06,12,8.10
2009,04,27,06,13,8.10
2009,04,27,06,14,8.10
2009,04,27,06,15,8.10
2009,04,27,06,16,8.00
2009,04,27,06,17,8.00
2009,04,27,06,18,8.00
2009,04,27,06,19,8.00
2009,04,27,06,20,8.00
2009,04,27,06,21,8.00
2009,04,27,06,22,8.00
2009,04,27,06,23,7.90
2009,04,27,06,24,7.90
2009,04,27,06,25,7.90
2009,04,27,06,26,7.90
2009,04,27,06,27,7.90
2009,04,27,06,28,8.00
2009,04,27,06,29,8.00
2009,04,27,06,30,8.00
2009,04,27,06,31,8.00
2009,04,27,06,32,8.00
2009,04,27,06,33,8.00
2009,04,27,06,34,8.00
2009,04,27,06,35,8.00
2009,04,27,06,36,8.00
2009,04,27,06,37,8.00
2009,04,27,06,38,8.00
2009,04,27,06,39,8.00
2009,04,27,06,40,8.00
2009,04,27,06,41,8.00
2009,04,27,06,42,8.00
2009,04,27,06,43,8.10
2009,04,27,06,44,8.10
2009,04,27,06,45,8.10
2009,04,27,06,46,8.10
2009,04,27,06,47,8.20
2009,04,27,06,48,8.20
2009,04,27,06,49,8.20
2009,04,27,06,50,8.20
2009,04,27,06,51,8.20
2009,04,27,06,52,8.20
2009,04,27,06,53,8.30
2009,04,27,06,54,8.30
2009,04,27,06,55,8.30
2009,04,27,06,56,8.30
2009,04,27,06,57,8.30
2009,04,27,06,58,8.30
2009,04,27,06,59,8.40
2009,04,27,07,00,8.40
2009,04,27,07,01,8.40
2009,04,27,07,02,8.40
2009,04,27,07,03,8.40
2009,04,27,07,04,8.40
2009,04,27,07,05,8.40
2009,04,27,07,06,8.40
2009,04,27,07,07,8.40
2009,04,27,07,08,8.40
2009,04,27,07,09,8.40
2009,04,27,07,10,8.40
2009,04,27,07,11,8.50
2009,04,27,07,12,8.50
2009,04,27,07,13,8.50
2009,04,27,07,14,8.50
2009,04,27,07,15,8.50
2009,04,27,07,16,8.60
2009,04,27,07,17,8.60
2009,04,27,07,18,8.60
2009,04,27,07,19,8.60
2009,04,27,07,20,8.60
2009,04,27,07,21,8.60
2009,04,27,07,22,8.60
2009,04,27,07,23,8.60
2009,04,27,07,24,8.70
2009,04,27,07,25,8.70
2009,04,27,07,26,8.70
2009,04,27,07,27,8.80
2009,04,27,07,28,8.80
2009,04,27,07,29,8.80
2009,04,27,07,30,8.80
2009,04,27,07,31,8.80
2009,04,27,07,32,8.80
2009,04,27,07,33,8.80
2009,04,27,07,34,8.90
2009,04,27,07,35,8.90
2009,04,27,07,36,8.90
2009,04,27,07,37,8.90
2009,04,27,07,38,8.90
2009,04,27,07,39,8.90
2009,04,27,07,40,9.00
2009,04,27,07,41,9.00
2009,04,27,07,42,9.00
2009,04,27,07,43,9.00
2009,04,27,07,44,9.00
2009,04,27,07,45,9.10
2009,04,27,07,46,9.10
2009,04,27,07,47,9.20
2009,04,27,07,48,9.20
2009,04,27,07,49,9.20
2009,04,27,07,50,9.30
2009,04,27,07,51,9.30
2009,04,27,07,52,9.40
2009,04,27,07,53,9.40
2009,04,27,07,54,9.40
2009,04,27,07,55,9.40
2009,04,27,07,56,9.40
2009,04,27,07,57,9.50
2009,04,27,07,58,9.50
2009,04,27,07,59,9.50
2009,04,27,08,00,9.60
2009,04,27,08,01,9.60
2009,04,27,08,02,9.60
2009,04,27,08,03,9.60
2009,04,27,08,04,9.70
2009,04,27,08,05,9.70
2009,04,27,08,06,9.80
2009,04,27,08,07,9.80
2009,04,27,08,08,9.90
2009,04,27,08,09,10.00
2009,04,27,08,10,10.10
2009,04,27,08,11,10.10
2009,04,27,08,12,10.20
2009,04,27,08,13,10.20
2009,04,27,08,14,10.30
2009,04,27,08,15,10.30
2009,04,27,08,16,10.30
2009,04,27,08,17,10.30
2009,04,27,08,18,10.30
2009,04,27,08,19,10.30
2009,04,27,08,20,10.30
2009,04,27,08,21,10.30
2009,04,27,08,22,10.30
2009,04,27,08,23,10.30
2009,04,27,08,24,10.40
2009,04,27,08,25,10.50
2009,04,27,08,26,10.50
2009,04,27,08,27,10.50
2009,04,27,08,28,10.50
2009,04,27,08,29,10.50
2009,04,27,08,30,10.60
2009,04,27,08,31,10.60
2009,04,27,08,32,10.70
2009,04,27,08,33,10.70
2009,04,27,08,34,10.70
2009,04,27,08,35,10.70
2009,04,27,08,36,10.60
2009,04,27,08,37,10.70
2009,04,27,08,38,10.60
2009,04,27,08,39,10.60
2009,04,27,08,40,10.60
2009,04,27,08,41,10.60
2009,04,27,08,42,10.60
2009,04,27,08,43,10.70
2009,04,27,08,44,10.70
2009,04,27,08,45,10.70
2009,04,27,08,46,10.70
2009,04,27,08,47,10.70
2009,04,27,08,48,10.70
2009,04,27,08,49,10.70
2009,04,27,08,50,10.70
2009,04,27,08,51,10.70
2009,04,27,08,52,10.70
2009,04,27,08,53,10.70
2009,04,27,08,54,10.80
2009,04,27,08,55,10.80
2009,04,27,08,56,10.90
2009,04,27,08,57,10.90
2009,04,27,08,58,11.00
2009,04,27,08,59,11.10
2009,04,27,09,00,11.10
2009,04,27,09,01,11.10
2009,04,27,09,02,11.20
2009,04,27,09,03,11.20
2009,04,27,09,04,11.20
2009,04,27,09,05,11.30
2009,04,27,09,06,11.30
2009,04,27,09,07,11.40
2009,04,27,09,08,11.40
2009,04,27,09,09,11.50
2009,04,27,09,10,11.50
2009,04,27,09,11,11.50
2009,04,27,09,12,11.60
2009,04,27,09,13,11.70
2009,04,27,09,14,11.80
2009,04,27,09,15,11.80
2009,04,27,09,16,11.90
2009,04,27,09,17,11.90
2009,04,27,09,18,11.90
2009,04,27,09,19,11.90
2009,04,27,09,20,11.90
2009,04,27,09,21,11.80
2009,04,27,09,22,11.80
2009,04,27,09,23,11.80
2009,04,27,09,24,11.80
2009,04,27,09,25,11.80
2009,04,27,09,26,11.80
2009,04,27,09,27,11.80
2009,04,27,09,28,11.90
2009,04,27,09,29,11.90
2009,04,27,09,30,12.00
2009,04,27,09,31,12.10
2009,04,27,09,32,12.10
2009,04,27,09,33,12.20
2009,04,27,09,34,12.20
2009,04,27,09,35,12.20
2009,04,27,09,36,12.30
2009,04,27,09,37,12.30
2009,04,27,09,38,12.30
2009,04,27,09,39,12.40
2009,04,27,09,40,12.30
2009,04,27,09,41,12.30
2009,04,27,09,42,12.30
2009,04,27,09,43,12.30
2009,04,27,09,44,12.40
2009,04,27,09,45,12.40
2009,04,27,09,46,12.50
2009,04,27,09,47,12.50
2009,04,27,09,48,12.40
2009,04,27,09,49,12.40
2009,04,27,09,50,12.40
2009,04,27,09,51,12.40
2009,04,27,09,52,12.50
2009,04,27,09,53,12.60
2009,04,27,09,54,12.60
2009,04,27,09,55,12.70
2009,04,27,09,56,12.70
2009,04,27,09,57,12.80
2009,04,27,09,58,12.80
2009,04,27,09,59,12.80
2009,04,27,10,00,12.80
2009,04,27,10,01,12.80
2009,04,27,10,02,12.90
2009,04,27,10,03,13.00
2009,04,27,10,04,13.10
2009,04,27,10,05,13.10
2009,04,27,10,06,13.00
2009,04,27,10,07,13.00
2009,04,27,10,08,13.00
2009,04,27,10,09,13.00
2009,04,27,10,10,13.10
2009,04,27,10,11,13.10
2009,04,27,10,12,13.20
2009,04,27,10,13,13.20
2009,04,27,10,14,13.30
2009,04,27,10,15,13.30
2009,04,27,10,16,13.30
2009,04,27,10,17,13.30
2009,04,27,10,18,13.40
2009,04,27,10,19,13.40
2009,04,27,10,20,13.40
2009,04,27,10,21,13.40
2009,04,27,10,22,13.50
2009,04,27,10,23,13.50
2009,04,27,10,24,13.60
2009,04,27,10,25,13.60
2009,04,27,10,26,13.70
2009,04,27,10,27,13.80
2009,04,27,10,28,13.80
2009,04,27,10,29,13.80
2009,04,27,10,30,13.80
2009,04,27,10,31,13.80
2009,04,27,10,32,13.70
2009,04,27,10,33,13.70
2009,04,27,10,34,13.60
2009,04,27,10,35,13.70
2009,04,27,10,36,13.60
2009,04,27,10,37,13.60
2009,04,27,10,38,13.50
2009,04,27,10,39,13.50
2009,04,27,10,40,13.50
2009,04,27,10,41,13.50
2009,04,27,10,42,13.50
2009,04,27,10,43,13.60
2009,04,27,10,44,13.70
2009,04,27,10,45,13.80
2009,04,27,10,46,13.90
2009,04,27,10,47,13.90
2009,04,27,10,48,13.90
2009,04,27,10,49,13.90
2009,04,27,10,50,13.80
2009,04,27,10,51,13.80
2009,04,27,10,52,13.80
2009,04,27,10,53,13.90
2009,04,27,10,54,13.90
2009,04,27,10,55,13.80
2009,04,27,10,56,13.80
2009,04,27,10,57,13.90
2009,04,27,10,58,13.90
2009,04,27,10,59,14.00
2009,04,27,11,00,14.00
2009,04,27,11,01,13.90
2009,04,27,11,02,13.90
2009,04,27,11,03,13.80
2009,04,27,11,04,13.80
2009,04,27,11,05,13.90
2009,04,27,11,06,13.90
2009,04,27,11,07,14.00
2009,04,27,11,08,14.00
2009,04,27,11,09,14.00
2009,04,27,11,10,14.00
2009,04,27,11,11,14.10
2009,04,27,11,12,14.10
2009,04,27,11,13,14.20
2009,04,27,11,14,14.20
2009,04,27,11,15,14.20
2009,04,27,11,16,14.10
2009,04,27,11,17,14.00
2009,04,27,11,18,13.90
2009,04,27,11,19,13.90
2009,04,27,11,20,13.80
2009,04,27,11,21,13.90
2009,04,27,11,22,13.90
2009,04,27,11,23,14.00
2009,04,27,11,24,14.20
2009,04,27,11,25,14.30
2009,04,27,11,26,14.50
2009,04,27,11,27,14.50
2009,04,27,11,28,14.60
2009,04,27,11,29,14.70
2009,04,27,11,30,14.70
2009,04,27,11,31,14.70
2009,04,27,11,32,14.80
2009,04,27,11,33,14.90
2009,04,27,11,34,15.00
2009,04,27,11,35,15.00
2009,04,27,11,36,15.00
2009,04,27,11,37,15.00
2009,04,27,11,38,15.00
2009,04,27,11,39,15.00
2009,04,27,11,40,15.00
2009,04,27,11,41,14.90
2009,04,27,11,42,14.80
2009,04,27,11,43,14.80
2009,04,27,11,44,14.80
2009,04,27,11,45,14.90
2009,04,27,11,46,15.00
2009,04,27,11,47,15.00
2009,04,27,11,48,15.00
2009,04,27,11,49,15.00
2009,04,27,11,50,15.00
2009,04,27,11,51,15.00
2009,04,27,11,52,15.00
2009,04,27,11,53,15.00
2009,04,27,11,54,15.00
2009,04,27,11,55,15.00
2009,04,27,11,56,15.00
2009,04,27,11,57,15.00
2009,04,27,11,58,15.00
2009,04,27,11,59,15.00
2009,04,27,12,00,15.00
2009,04,27,12,01,15.20
2009,04,27,12,02,15.20
2009,04,27,12,03,15.30
2009,04,27,12,04,15.30
2009,04,27,12,05,15.40
2009,04,27,12,06,15.40
2009,04,27,12,07,15.40
2009,04,27,12,08,15.40
2009,04,27,12,09,15.40
2009,04,27,12,10,15.40
2009,04,27,12,11,15.40
2009,04,27,12,12,15.40
2009,04,27,12,13,15.40
2009,04,27,12,14,15.40
2009,04,27,12,15,15.50
2009,04,27,12,16,15.60
2009,04,27,12,17,15.50
2009,04,27,12,18,15.50
2009,04,27,12,19,15.40
2009,04,27,12,20,15.40
2009,04,27,12,21,15.40
2009,04,27,12,22,15.40
2009,04,27,12,23,15.30
2009,04,27,12,24,15.30
2009,04,27,12,25,15.20
2009,04,27,12,26,15.20
2009,04,27,12,27,15.20
2009,04,27,12,28,15.20
2009,04,27,12,29,15.20
2009,04,27,12,30,15.20
2009,04,27,12,31,15.20
2009,04,27,12,32,15.30
2009,04,27,12,33,15.30
2009,04,27,12,34,15.30
2009,04,27,12,35,15.30
2009,04,27,12,36,15.40
2009,04,27,12,37,15.40
2009,04,27,12,38,15.40
2009,04,27,12,39,15.40
2009,04,27,12,40,15.40
2009,04,27,12,41,15.30
2009,04,27,12,42,15.40
2009,04,27,12,43,15.40
2009,04,27,12,44,15.50
2009,04,27,12,45,15.60
2009,04,27,12,46,15.80
2009,04,27,12,47,15.90
2009,04,27,12,48,16.00
2009,04,27,12,49,16.00
2009,04,27,12,50,16.00
2009,04,27,12,51,16.00
2009,04,27,12,52,15.90
2009,04,27,12,53,15.90
2009,04,27,12,54,15.90
2009,04,27,12,55,15.90
2009,04,27,12,56,16.00
2009,04,27,12,57,16.00
2009,04,27,12,58,15.90
2009,04,27,12,59,15.90
2009,04,27,13,00,15.80
2009,04,27,13,01,15.80
2009,04,27,13,02,15.70
2009,04,27,13,03,15.80
2009,04,27,13,04,15.70
2009,04,27,13,05,15.60
2009,04,27,13,06,15.50
2009,04,27,13,07,15.50
2009,04,27,13,08,15.40
2009,04,27,13,09,15.40
2009,04,27,13,10,15.30
2009,04,27,13,11,15.30
2009,04,27,13,12,15.40
2009,04,27,13,13,15.50
2009,04,27,13,14,15.50
2009,04,27,13,15,15.50
2009,04,27,13,16,15.50
2009,04,27,13,17,15.40
2009,04,27,13,18,15.40
2009,04,27,13,19,15.40
2009,04,27,13,20,15.40
2009,04,27,13,21,15.50
2009,04,27,13,22,15.50
2009,04,27,13,23,15.60
2009,04,27,13,24,15.60
2009,04,27,13,25,15.60
2009,04,27,13,26,15.60
2009,04,27,13,27,15.60
2009,04,27,13,28,15.60
2009,04,27,13,29,15.60
2009,04,27,13,30,15.60
2009,04,27,13,31,15.70
2009,04,27,13,32,15.80
2009,04,27,13,33,15.90
2009,04,27,13,34,15.90
2009,04,27,13,35,15.90
2009,04,27,13,36,15.90
2009,04,27,13,37,15.90
2009,04,27,13,38,16.00
2009,04,27,13,39,16.00
2009,04,27,13,40,16.10
2009,04,27,13,41,16.10
2009,04,27,13,42,16.10
2009,04,27,13,43,16.10
2009,04,27,13,44,16.20
2009,04,27,13,45,16.10
2009,04,27,13,46,16.10
2009,04,27,13,47,16.00
2009,04,27,13,48,15.90
2009,04,27,13,49,15.90
2009,04,27,13,50,16.00
2009,04,27,13,51,16.10
2009,04,27,13,52,16.20
2009,04,27,13,53,16.30
2009,04,27,13,54,16.30
2009,04,27,13,55,16.30
2009,04,27,13,56,16.20
2009,04,27,13,57,16.20
2009,04,27,13,58,16.10
2009,04,27,13,59,16.20
2009,04,27,14,00,16.20
2009,04,27,14,01,16.30
2009,04,27,14,02,16.40
2009,04,27,14,03,16.50
2009,04,27,14,04,16.60
2009,04,27,14,05,16.60
2009,04,27,14,06,16.50
2009,04,27,14,07,16.40
2009,04,27,14,08,16.40
2009,04,27,14,09,16.30
2009,04,27,14,10,16.30
2009,04,27,14,11,16.40
2009,04,27,14,12,16.50
2009,04,27,14,13,16.60
2009,04,27,14,14,16.50
2009,04,27,14,15,16.50
2009,04,27,14,16,16.40
2009,04,27,14,17,16.40
2009,04,27,14,18,16.50
2009,04,27,14,19,16.50
2009,04,27,14,20,16.40
2009,04,27,14,21,16.40
2009,04,27,14,22,16.40
2009,04,27,14,23,16.50
2009,04,27,14,24,16.60
2009,04,27,14,25,16.50
2009,04,27,14,26,16.40
2009,04,27,14,27,16.30
2009,04,27,14,28,16.30
2009,04,27,14,29,16.30
2009,04,27,14,30,16.30
2009,04,27,14,31,16.30
2009,04,27,14,32,16.30
2009,04,27,14,33,16.30
2009,04,27,14,34,16.40
2009,04,27,14,35,16.40
2009,04,27,14,36,16.40
2009,04,27,14,37,16.40
2009,04,27,14,38,16.50
2009,04,27,14,39,16.60
2009,04,27,14,40,16.70
2009,04,27,14,41,16.80
2009,04,27,14,42,16.90
2009,04,27,14,43,16.90
2009,04,27,14,44,16.90
2009,04,27,14,45,16.80
2009,04,27,14,46,16.80
2009,04,27,14,47,16.80
2009,04,27,14,48,16.80
2009,04,27,14,49,16.80
2009,04,27,14,50,16.90
2009,04,27,14,51,16.90
2009,04,27,14,52,17.00
2009,04,27,14,53,17.10
2009,04,27,14,54,17.10
2009,04,27,14,55,17.00
2009,04,27,14,56,16.90
2009,04,27,14,57,16.90
2009,04,27,14,58,16.90
2009,04,27,14,59,16.80
2009,04,27,15,00,16.80
2009,04,27,15,01,16.80
2009,04,27,15,02,16.80
2009,04,27,15,03,16.90
2009,04,27,15,04,16.90
2009,04,27,15,05,16.80
2009,04,27,15,06,16.80
2009,04,27,15,07,16.80
2009,04,27,15,08,16.70
2009,04,27,15,09,16.70
2009,04,27,15,10,16.70
2009,04,27,15,11,16.70
2009,04,27,15,12,16.60
2009,04,27,15,13,16.60
2009,04,27,15,14,16.60
2009,04,27,15,15,16.60
2009,04,27,15,16,16.70
2009,04,27,15,17,16.80
2009,04,27,15,18,16.80
2009,04,27,15,19,16.90
2009,04,27,15,20,16.90
2009,04,27,15,21,16.90
2009,04,27,15,22,16.90
2009,04,27,15,23,16.90
2009,04,27,15,24,16.90
2009,04,27,15,25,16.90
2009,04,27,15,26,17.00
2009,04,27,15,27,16.90
2009,04,27,15,28,16.90
2009,04,27,15,29,16.90
2009,04,27,15,30,16.90
2009,04,27,15,31,16.90
2009,04,27,15,32,16.90
2009,04,27,15,33,17.00
2009,04,27,15,34,17.00
2009,04,27,15,35,17.00
2009,04,27,15,36,16.90
2009,04,27,15,37,16.80
2009,04,27,15,38,16.70
2009,04,27,15,39,16.70
2009,04,27,15,40,16.60
2009,04,27,15,41,16.70
2009,04,27,15,42,16.70
2009,04,27,15,43,16.70
2009,04,27,15,44,16.60
2009,04,27,15,45,16.50
2009,04,27,15,46,16.40
2009,04,27,15,47,16.30
2009,04,27,15,48,16.20
2009,04,27,15,49,16.20
2009,04,27,15,50,16.30
2009,04,27,15,51,16.30
2009,04,27,15,52,16.30
2009,04,27,15,53,16.40
2009,04,27,15,54,16.50
2009,04,27,15,55,16.60
2009,04,27,15,56,16.50
2009,04,27,15,57,16.50
2009,04,27,15,58,16.50
2009,04,27,15,59,16.60
2009,04,27,16,00,16.60
2009,04,27,16,01,16.70
2009,04,27,16,02,16.70
2009,04,27,16,03,16.80
2009,04,27,16,04,16.90
2009,04,27,16,05,16.90
2009,04,27,16,06,17.00
2009,04,27,16,07,17.10
2009,04,27,16,08,17.10
2009,04,27,16,09,17.10
2009,04,27,16,10,17.10
2009,04,27,16,11,17.10
2009,04,27,16,12,17.10
2009,04,27,16,13,17.10
2009,04,27,16,14,17.10
2009,04,27,16,15,17.10
2009,04,27,16,16,17.10
2009,04,27,16,17,17.10
2009,04,27,16,18,17.10
2009,04,27,16,19,17.00
2009,04,27,16,20,16.90
2009,04,27,16,21,16.80
2009,04,27,16,22,16.70
2009,04,27,16,23,16.60
2009,04,27,16,24,16.60
2009,04,27,16,25,16.60
2009,04,27,16,26,16.60
2009,04,27,16,27,16.70
2009,04,27,16,28,16.70
2009,04,27,16,29,16.80
2009,04,27,16,30,16.80
2009,04,27,16,31,16.80
2009,04,27,16,32,16.80
2009,04,27,16,33,16.80
2009,04,27,16,34,16.70
2009,04,27,16,35,16.70
2009,04,27,16,36,16.70
2009,04,27,16,37,16.80
2009,04,27,16,38,16.80
2009,04,27,16,39,16.80
2009,04,27,16,40,16.80
2009,04,27,16,41,16.80
2009,04,27,16,42,16.80
2009,04,27,16,43,16.70
2009,04,27,16,44,16.70
2009,04,27,16,45,16.70
2009,04,27,16,46,16.60
2009,04,27,16,47,16.60
2009,04,27,16,48,16.60
2009,04,27,16,49,16.60
2009,04,27,16,50,16.70
2009,04,27,16,51,16.70
2009,04,27,16,52,16.80
2009,04,27,16,53,16.80
2009,04,27,16,54,16.80
2009,04,27,16,55,16.80
2009,04,27,16,56,16.70
2009,04,27,16,57,16.70
2009,04,27,16,58,16.70
2009,04,27,16,59,16.70
2009,04,27,17,00,16.70
2009,04,27,17,01,16.80
2009,04,27,17,02,16.80
2009,04,27,17,03,16.80
2009,04,27,17,04,16.90
2009,04,27,17,05,16.90
2009,04,27,17,06,17.00
2009,04,27,17,07,17.00
2009,04,27,17,08,17.00
2009,04,27,17,09,16.90
2009,04,27,17,10,16.80
2009,04,27,17,11,16.70
2009,04,27,17,12,16.60
2009,04,27,17,13,16.60
2009,04,27,17,14,16.60
2009,04,27,17,15,16.60
2009,04,27,17,16,16.70
2009,04,27,17,17,16.70
2009,04,27,17,18,16.70
2009,04,27,17,19,16.70
2009,04,27,17,20,16.70
2009,04,27,17,21,16.80
2009,04,27,17,22,16.80
2009,04,27,17,23,16.80
2009,04,27,17,24,16.80
2009,04,27,17,25,16.80
2009,04,27,17,26,16.80
2009,04,27,17,27,16.80
2009,04,27,17,28,16.80
2009,04,27,17,29,16.80
2009,04,27,17,30,16.80
2009,04,27,17,31,16.80
2009,04,27,17,32,16.80
2009,04,27,17,33,16.70
2009,04,27,17,34,16.70
2009,04,27,17,35,16.60
2009,04,27,17,36,16.60
2009,04,27,17,37,16.60
2009,04,27,17,38,16.60
2009,04,27,17,39,16.60
2009,04,27,17,40,16.60
2009,04,27,17,41,16.60
2009,04,27,17,42,16.60
2009,04,27,17,43,16.60
2009,04,27,17,44,16.50
2009,04,27,17,45,16.50
2009,04,27,17,46,16.40
2009,04,27,17,47,16.40
2009,04,27,17,48,16.30
2009,04,27,17,49,16.20
2009,04,27,17,50,16.20
2009,04,27,17,51,16.10
2009,04,27,17,52,16.00
2009,04,27,17,53,16.00
2009,04,27,17,54,15.90
2009,04,27,17,55,15.90
2009,04,27,17,56,15.80
2009,04,27,17,57,15.80
2009,04,27,17,58,15.70
2009,04,27,17,59,15.70
2009,04,27,18,00,15.70
2009,04,27,18,01,15.80
2009,04,27,18,02,15.80
2009,04,27,18,03,15.80
2009,04,27,18,04,15.90
2009,04,27,18,05,16.00
2009,04,27,18,06,16.10
2009,04,27,18,07,16.10
2009,04,27,18,08,16.20
2009,04,27,18,09,16.20